Time,TemperatureF,DewpointF,PressureIn,WindDirection,WindDirectionDegrees,WindSpeedMPH,WindSpeedGustMPH,Humidity,HourlyPrecipIn,Conditions,Clouds,dailyrainin,SoftwareType,DateUTC
2013-02-01 00:01:00,18.0,16.0,-100.00,WNW,291,11.0,25.0,91,-99.99,,,-99.99,,2013-02-01 07:01:00,
2013-02-01 00:11:00,18.0,16.0,-100.00,WNW,291,11.0,25.0,91,-99.99,,,-99.99,,2013-02-01 07:11:00,
2013-02-01 00:21:00,18.0,16.0,-100.00,WNW,296,9.0,20.0,91,-99.99,,,-99.99,,2013-02-01 07:21:00,
2013-02-01 00:32:00,18.0,16.0,-100.00,WNW,302,7.0,18.0,91,-99.99,,,-99.99,,2013-02-01 07:32:00,
2013-02-01 00:41:00,18.0,16.0,-100.00,WNW,302,7.0,18.0,91,-99.99,,,-99.99,,2013-02-01 07:41:00,
2013-02-01 00:52:00,18.0,16.0,-100.00,WNW,298,8.0,20.0,91,-99.99,,,-99.99,,2013-02-01 07:52:00,
2013-02-01 01:01:00,18.0,16.0,-100.00,WNW,294,8.0,20.0,91,-99.99,,,-99.99,,2013-02-01 08:01:00,
2013-02-01 01:11:00,18.0,16.0,-100.00,WNW,294,8.0,20.0,91,-99.99,,,-99.99,,2013-02-01 08:11:00,
2013-02-01 01:21:00,18.0,16.0,-100.00,WNW,290,8.0,22.0,91,-99.99,,,-99.99,,2013-02-01 08:21:00,
2013-02-01 01:31:00,18.0,16.0,-100.00,WNW,294,8.0,18.0,91,-99.99,,,-99.99,,2013-02-01 08:31:00,
2013-02-01 01:42:00,18.0,16.0,-100.00,WNW,294,8.0,18.0,91,-99.99,,,-99.99,,2013-02-01 08:42:00,
2013-02-01 01:52:00,18.0,16.0,-100.00,WNW,283,9.0,22.0,91,-99.99,,,-99.99,,2013-02-01 08:52:00,
2013-02-01 02:01:00,18.0,16.0,-100.00,WNW,291,12.0,24.0,91,-99.99,,,-99.99,,2013-02-01 09:01:00,
2013-02-01 02:11:00,18.0,16.0,-100.00,WNW,291,12.0,24.0,91,-99.99,,,-99.99,,2013-02-01 09:11:00,
2013-02-01 02:21:00,18.0,16.0,-100.00,WNW,288,10.0,22.0,91,-99.99,,,-99.99,,2013-02-01 09:21:00,
2013-02-01 02:32:00,18.0,16.0,-100.00,WNW,290,12.0,26.0,91,-99.99,,,-99.99,,2013-02-01 09:32:00,
2013-02-01 02:41:00,18.0,16.0,-100.00,WNW,290,12.0,26.0,91,-99.99,,,-99.99,,2013-02-01 09:41:00,
2013-02-01 02:52:00,18.0,16.0,-100.00,WNW,294,8.0,18.0,91,-99.99,,,-99.99,,2013-02-01 09:52:00,
2013-02-01 03:01:00,18.0,16.0,-100.00,WNW,299,9.0,25.0,91,-99.99,,,-99.99,,2013-02-01 10:01:00,
2013-02-01 03:11:00,18.0,16.0,-100.00,WNW,299,9.0,25.0,91,-99.99,,,-99.99,,2013-02-01 10:11:00,
2013-02-01 03:21:00,19.0,17.0,-100.00,NW,306,12.0,33.0,92,-99.99,,,-99.99,,2013-02-01 10:21:00,
2013-02-01 03:31:00,19.0,17.0,-100.00,NW,312,14.0,29.0,92,-99.99,,,-99.99,,2013-02-01 10:31:00,
2013-02-01 03:42:00,19.0,17.0,-100.00,NW,312,14.0,29.0,92,-99.99,,,-99.99,,2013-02-01 10:42:00,
2013-02-01 03:53:00,19.0,17.0,-100.00,NW,308,14.0,28.0,92,-99.99,,,-99.99,,2013-02-01 10:53:00,
2013-02-01 04:01:00,19.0,17.0,-100.00,NW,310,16.0,35.0,92,-99.99,,,-99.99,,2013-02-01 11:01:00,
2013-02-01 04:11:00,19.0,17.0,-100.00,NW,310,16.0,35.0,92,-99.99,,,-99.99,,2013-02-01 11:11:00,
2013-02-01 04:21:00,19.0,17.0,-100.00,NW,317,13.0,27.0,92,-99.99,,,-99.99,,2013-02-01 11:21:00,
2013-02-01 04:32:00,19.0,17.0,-100.00,NW,308,13.0,36.0,92,-99.99,,,-99.99,,2013-02-01 11:32:00,
2013-02-01 04:41:00,19.0,17.0,-100.00,NW,308,13.0,36.0,92,-99.99,,,-99.99,,2013-02-01 11:41:00,
2013-02-01 04:53:00,19.0,17.0,-100.00,WNW,301,16.0,29.0,92,-99.99,,,-99.99,,2013-02-01 11:53:00,
2013-02-01 05:02:00,19.0,17.0,-100.00,WNW,303,19.0,33.0,92,-99.99,,,-99.99,,2013-02-01 12:02:00,
2013-02-01 05:12:00,19.0,17.0,-100.00,WNW,303,19.0,33.0,92,-99.99,,,-99.99,,2013-02-01 12:12:00,
2013-02-01 05:22:00,18.0,16.0,-100.00,WNW,303,23.0,39.0,91,-99.99,,,-99.99,,2013-02-01 12:22:00,
2013-02-01 05:32:00,17.0,15.0,-100.00,NW,308,23.0,38.0,91,-99.99,,,-99.99,,2013-02-01 12:32:00,
2013-02-01 05:42:00,17.0,15.0,-100.00,NW,308,23.0,38.0,91,-99.99,,,-99.99,,2013-02-01 12:42:00,
2013-02-01 05:52:00,17.0,15.0,-100.00,NW,305,24.0,48.0,91,-99.99,,,-99.99,,2013-02-01 12:52:00,
2013-02-01 06:02:00,17.0,15.0,-100.00,WNW,300,23.0,41.0,91,-99.99,,,-99.99,,2013-02-01 13:02:00,
2013-02-01 06:11:00,17.0,15.0,-100.00,WNW,300,23.0,41.0,91,-99.99,,,-99.99,,2013-02-01 13:11:00,
2013-02-01 06:21:00,17.0,15.0,-100.00,WNW,300,22.0,44.0,91,-99.99,,,-99.99,,2013-02-01 13:21:00,
2013-02-01 06:32:00,18.0,16.0,-100.00,WNW,290,16.0,31.0,91,-99.99,,,-99.99,,2013-02-01 13:32:00,
2013-02-01 06:42:00,18.0,16.0,-100.00,WNW,290,16.0,31.0,91,-99.99,,,-99.99,,2013-02-01 13:42:00,
2013-02-01 06:53:00,18.0,16.0,-100.00,WNW,282,14.0,29.0,91,-99.99,,,-99.99,,2013-02-01 13:53:00,
2013-02-01 07:03:00,18.0,16.0,-100.00,WNW,283,11.0,27.0,91,-99.99,,,-99.99,,2013-02-01 14:03:00,
2013-02-01 07:11:00,18.0,16.0,-100.00,WNW,283,11.0,27.0,91,-99.99,,,-99.99,,2013-02-01 14:11:00,
2013-02-01 07:21:00,18.0,16.0,-100.00,WNW,291,10.0,21.0,91,-99.99,,,-99.99,,2013-02-01 14:21:00,
2013-02-01 07:32:00,18.0,16.0,-100.00,WNW,283,8.0,23.0,91,-99.99,,,-99.99,,2013-02-01 14:32:00,
2013-02-01 07:42:00,18.0,16.0,-100.00,WNW,283,8.0,23.0,91,-99.99,,,-99.99,,2013-02-01 14:42:00,
2013-02-01 07:52:00,18.0,16.0,-100.00,West,280,6.0,16.0,91,-99.99,,,-99.99,,2013-02-01 14:52:00,
2013-02-01 08:02:00,18.0,16.0,-100.00,WNW,287,7.0,19.0,91,-99.99,,,-99.99,,2013-02-01 15:02:00,
2013-02-01 08:12:00,18.0,16.0,-100.00,WNW,287,7.0,19.0,91,-99.99,,,-99.99,,2013-02-01 15:12:00,
2013-02-01 08:21:00,18.0,16.0,-100.00,WNW,290,9.0,28.0,91,-99.99,,,-99.99,,2013-02-01 15:21:00,
2013-02-01 08:32:00,18.0,16.0,-100.00,WNW,287,13.0,31.0,91,-99.99,,,-99.99,,2013-02-01 15:32:00,
2013-02-01 08:42:00,18.0,16.0,-100.00,WNW,287,13.0,31.0,91,-99.99,,,-99.99,,2013-02-01 15:42:00,
2013-02-01 08:52:00,18.0,16.0,-100.00,WNW,286,13.0,32.0,91,-99.99,,,-99.99,,2013-02-01 15:52:00,
2013-02-01 09:02:00,18.0,16.0,-100.00,WNW,293,13.0,31.0,91,-99.99,,,-99.99,,2013-02-01 16:02:00,
2013-02-01 09:11:00,18.0,16.0,-100.00,WNW,293,13.0,31.0,91,-99.99,,,-99.99,,2013-02-01 16:11:00,
2013-02-01 09:21:00,18.0,16.0,-100.00,WNW,303,14.0,29.0,91,-99.99,,,-99.99,,2013-02-01 16:21:00,
2013-02-01 09:32:00,18.0,16.0,-100.00,NW,307,15.0,31.0,91,-99.99,,,-99.99,,2013-02-01 16:32:00,
2013-02-01 09:42:00,18.0,16.0,-100.00,NW,307,15.0,31.0,91,-99.99,,,-99.99,,2013-02-01 16:42:00,
2013-02-01 09:52:00,18.0,16.0,-100.00,NW,306,15.0,34.0,91,-99.99,,,-99.99,,2013-02-01 16:52:00,
2013-02-01 10:02:00,19.0,17.0,-100.00,WNW,300,15.0,31.0,91,-99.99,,,-99.99,,2013-02-01 17:02:00,
2013-02-01 10:11:00,19.0,17.0,-100.00,WNW,300,15.0,31.0,91,-99.99,,,-99.99,,2013-02-01 17:11:00,
2013-02-01 10:22:00,19.0,17.0,-100.00,NW,308,16.0,33.0,91,-99.99,,,-99.99,,2013-02-01 17:22:00,
2013-02-01 10:32:00,19.0,17.0,-100.00,NW,308,12.0,26.0,91,-99.99,,,-99.99,,2013-02-01 17:32:00,
2013-02-01 10:42:00,19.0,17.0,-100.00,NW,308,12.0,26.0,91,-99.99,,,-99.99,,2013-02-01 17:42:00,
2013-02-01 10:53:00,19.0,17.0,-100.00,NW,312,13.0,32.0,91,-99.99,,,-99.99,,2013-02-01 17:53:00,
2013-02-01 11:02:00,20.0,18.0,-100.00,NW,317,16.0,32.0,91,-99.99,,,-99.99,,2013-02-01 18:02:00,
2013-02-01 11:12:00,20.0,18.0,-100.00,NW,317,16.0,32.0,91,-99.99,,,-99.99,,2013-02-01 18:12:00,
2013-02-01 11:22:00,21.0,19.0,-100.00,NW,320,15.0,33.0,91,-99.99,,,-99.99,,2013-02-01 18:22:00,
2013-02-01 11:31:00,22.0,20.0,-100.00,NW,318,16.0,35.0,91,-99.99,,,-99.99,,2013-02-01 18:31:00,
2013-02-01 11:42:00,22.0,20.0,-100.00,NW,318,16.0,35.0,91,-99.99,,,-99.99,,2013-02-01 18:42:00,
2013-02-01 11:53:00,22.0,20.0,-100.00,NNW,329,26.0,46.0,91,-99.99,,,-99.99,,2013-02-01 18:53:00,
2013-02-01 12:02:00,21.0,19.0,-100.00,NNW,328,22.0,41.0,91,-99.99,,,-99.99,,2013-02-01 19:02:00,
2013-02-01 12:11:00,21.0,19.0,-100.00,NNW,328,22.0,41.0,91,-99.99,,,-99.99,,2013-02-01 19:11:00,
2013-02-01 12:21:00,21.0,19.0,-100.00,NNW,329,27.0,49.0,91,-99.99,,,-99.99,,2013-02-01 19:21:00,
2013-02-01 12:32:00,21.0,19.0,-100.00,NNW,328,22.0,42.0,91,-99.99,,,-99.99,,2013-02-01 19:32:00,
2013-02-01 12:41:00,21.0,19.0,-100.00,NNW,328,22.0,42.0,91,-99.99,,,-99.99,,2013-02-01 19:41:00,
2013-02-01 12:52:00,20.0,18.0,-100.00,NNW,334,19.0,32.0,91,-99.99,,,-99.99,,2013-02-01 19:52:00,
2013-02-01 13:02:00,21.0,19.0,-100.00,NNW,331,20.0,33.0,91,-99.99,,,-99.99,,2013-02-01 20:02:00,
2013-02-01 13:11:00,21.0,19.0,-100.00,NNW,331,20.0,33.0,91,-99.99,,,-99.99,,2013-02-01 20:11:00,
2013-02-01 13:21:00,20.0,18.0,-100.00,NW,326,19.0,38.0,91,-99.99,,,-99.99,,2013-02-01 20:21:00,
2013-02-01 13:31:00,20.0,18.0,-100.00,WNW,291,10.0,29.0,91,-99.99,,,-99.99,,2013-02-01 20:31:00,
2013-02-01 13:41:00,20.0,18.0,-100.00,WNW,291,10.0,29.0,91,-99.99,,,-99.99,,2013-02-01 20:41:00,
2013-02-01 13:52:00,20.0,18.0,-100.00,NW,322,13.0,29.0,91,-99.99,,,-99.99,,2013-02-01 20:52:00,
2013-02-01 14:01:00,19.0,17.0,-100.00,NW,313,9.0,30.0,91,-99.99,,,-99.99,,2013-02-01 21:01:00,
2013-02-01 14:11:00,19.0,17.0,-100.00,NW,313,9.0,30.0,91,-99.99,,,-99.99,,2013-02-01 21:11:00,
2013-02-01 14:21:00,20.0,18.0,-100.00,WNW,303,8.0,21.0,91,-99.99,,,-99.99,,2013-02-01 21:21:00,
2013-02-01 14:31:00,21.0,19.0,-100.00,NNW,340,17.0,28.0,91,-99.99,,,-99.99,,2013-02-01 21:31:00,
2013-02-01 14:41:00,21.0,19.0,-100.00,NW,320,7.0,27.0,91,-99.99,,,-99.99,,2013-02-01 21:41:00,
2013-02-01 14:52:00,21.0,19.0,-100.00,NW,320,7.0,27.0,91,-99.99,,,-99.99,,2013-02-01 21:52:00,
2013-02-01 15:02:00,20.0,18.0,-100.00,NNW,339,13.0,26.0,91,-99.99,,,-99.99,,2013-02-01 22:02:00,
2013-02-01 15:11:00,20.0,18.0,-100.00,NNW,339,13.0,26.0,91,-99.99,,,-99.99,,2013-02-01 22:11:00,
2013-02-01 15:21:00,20.0,18.0,-100.00,NNW,331,12.0,25.0,91,-99.99,,,-99.99,,2013-02-01 22:21:00,
2013-02-01 15:32:00,20.0,18.0,-100.00,NNW,333,13.0,31.0,91,-99.99,,,-99.99,,2013-02-01 22:32:00,
2013-02-01 15:42:00,20.0,18.0,-100.00,NNW,333,13.0,31.0,91,-99.99,,,-99.99,,2013-02-01 22:42:00,
2013-02-01 15:52:00,19.0,17.0,-100.00,NNW,339,14.0,26.0,91,-99.99,,,-99.99,,2013-02-01 22:52:00,
2013-02-01 16:01:00,18.0,16.0,-100.00,NNW,339,16.0,25.0,91,-99.99,,,-99.99,,2013-02-01 23:01:00,
2013-02-01 16:11:00,18.0,16.0,-100.00,NNW,339,16.0,25.0,91,-99.99,,,-99.99,,2013-02-01 23:11:00,
2013-02-01 16:21:00,18.0,16.0,-100.00,NNW,337,15.0,29.0,91,-99.99,,,-99.99,,2013-02-01 23:21:00,
2013-02-01 16:31:00,18.0,16.0,-100.00,NNW,328,11.0,24.0,91,-99.99,,,-99.99,,2013-02-01 23:31:00,
2013-02-01 16:41:00,18.0,16.0,-100.00,NNW,328,11.0,24.0,91,-99.99,,,-99.99,,2013-02-01 23:41:00,
2013-02-01 16:52:00,18.0,16.0,-100.00,NNW,336,12.0,24.0,91,-99.99,,,-99.99,,2013-02-01 23:52:00,
2013-02-01 17:01:00,17.0,15.0,-100.00,NNW,336,14.0,26.0,91,-99.99,,,-99.99,,2013-02-02 00:01:00,
2013-02-01 17:11:00,17.0,15.0,-100.00,NNW,336,14.0,26.0,91,-99.99,,,-99.99,,2013-02-02 00:11:00,
2013-02-01 17:21:00,17.0,15.0,-100.00,NNW,327,10.0,23.0,91,-99.99,,,-99.99,,2013-02-02 00:21:00,
2013-02-01 17:32:00,17.0,15.0,-100.00,NNW,336,15.0,27.0,91,-99.99,,,-99.99,,2013-02-02 00:32:00,
2013-02-01 17:41:00,17.0,15.0,-100.00,NNW,336,15.0,27.0,91,-99.99,,,-99.99,,2013-02-02 00:41:00,
2013-02-01 17:52:00,16.0,14.0,-100.00,NNW,341,18.0,28.0,90,-99.99,,,-99.99,,2013-02-02 00:52:00,
2013-02-01 18:01:00,16.0,14.0,-100.00,NNW,330,12.0,26.0,90,-99.99,,,-99.99,,2013-02-02 01:01:00,
2013-02-01 18:11:00,16.0,14.0,-100.00,NNW,330,12.0,26.0,90,-99.99,,,-99.99,,2013-02-02 01:11:00,
2013-02-01 18:21:00,16.0,14.0,-100.00,NW,309,6.0,17.0,90,-99.99,,,-99.99,,2013-02-02 01:21:00,
2013-02-01 18:31:00,16.0,14.0,-100.00,NW,324,8.0,19.0,90,-99.99,,,-99.99,,2013-02-02 01:31:00,
2013-02-01 18:41:00,16.0,14.0,-100.00,NW,324,8.0,19.0,90,-99.99,,,-99.99,,2013-02-02 01:41:00,
2013-02-01 18:52:00,16.0,14.0,-100.00,NNW,331,10.0,22.0,90,-99.99,,,-99.99,,2013-02-02 01:52:00,
2013-02-01 19:01:00,16.0,14.0,-100.00,NW,319,8.0,19.0,90,-99.99,,,-99.99,,2013-02-02 02:01:00,
2013-02-01 19:11:00,16.0,14.0,-100.00,NW,319,8.0,19.0,90,-99.99,,,-99.99,,2013-02-02 02:11:00,
2013-02-01 19:21:00,16.0,14.0,-100.00,NNW,328,10.0,22.0,90,-99.99,,,-99.99,,2013-02-02 02:21:00,
2013-02-01 19:31:00,16.0,14.0,-100.00,NW,306,6.0,20.0,90,-99.99,,,-99.99,,2013-02-02 02:31:00,
2013-02-01 19:41:00,16.0,14.0,-100.00,NW,306,6.0,20.0,90,-99.99,,,-99.99,,2013-02-02 02:41:00,
2013-02-01 19:52:00,15.0,13.0,-100.00,NW,326,11.0,24.0,90,-99.99,,,-99.99,,2013-02-02 02:52:00,
2013-02-01 20:02:00,15.0,13.0,-100.00,NNW,332,16.0,26.0,90,-99.99,,,-99.99,,2013-02-02 03:02:00,
2013-02-01 20:11:00,15.0,13.0,-100.00,NNW,332,16.0,26.0,90,-99.99,,,-99.99,,2013-02-02 03:11:00,
2013-02-01 20:21:00,15.0,13.0,-100.00,NW,318,8.0,25.0,90,-99.99,,,-99.99,,2013-02-02 03:21:00,
2013-02-01 20:32:00,15.0,13.0,-100.00,NNW,345,17.0,27.0,90,-99.99,,,-99.99,,2013-02-02 03:32:00,
2013-02-01 20:42:00,15.0,13.0,-100.00,NNW,345,17.0,27.0,90,-99.99,,,-99.99,,2013-02-02 03:42:00,
2013-02-01 20:52:00,15.0,13.0,-100.00,NNW,339,17.0,24.0,90,-99.99,,,-99.99,,2013-02-02 03:52:00,
2013-02-01 21:01:00,15.0,13.0,-100.00,NNW,329,12.0,30.0,90,-99.99,,,-99.99,,2013-02-02 04:01:00,
2013-02-01 21:11:00,15.0,13.0,-100.00,NNW,329,12.0,30.0,90,-99.99,,,-99.99,,2013-02-02 04:11:00,
2013-02-01 21:21:00,15.0,13.0,-100.00,NNW,336,18.0,29.0,90,-99.99,,,-99.99,,2013-02-02 04:21:00,
2013-02-01 21:32:00,15.0,13.0,-100.00,NNW,332,12.0,31.0,90,-99.99,,,-99.99,,2013-02-02 04:32:00,
2013-02-01 21:41:00,15.0,13.0,-100.00,NNW,332,12.0,31.0,90,-99.99,,,-99.99,,2013-02-02 04:41:00,
2013-02-01 21:52:00,15.0,13.0,-100.00,NNW,334,18.0,29.0,90,-99.99,,,-99.99,,2013-02-02 04:52:00,
2013-02-01 22:02:00,15.0,13.0,-100.00,NNW,340,20.0,28.0,90,-99.99,,,-99.99,,2013-02-02 05:02:00,
2013-02-01 22:11:00,15.0,13.0,-100.00,NNW,340,20.0,28.0,90,-99.99,,,-99.99,,2013-02-02 05:11:00,
2013-02-01 22:22:00,15.0,13.0,-100.00,NNW,333,14.0,25.0,90,-99.99,,,-99.99,,2013-02-02 05:22:00,
2013-02-01 22:32:00,15.0,13.0,-100.00,NW,315,8.0,27.0,90,-99.99,,,-99.99,,2013-02-02 05:32:00,
2013-02-01 22:41:00,15.0,13.0,-100.00,NW,315,8.0,27.0,90,-99.99,,,-99.99,,2013-02-02 05:41:00,
2013-02-01 22:52:00,15.0,13.0,-100.00,NNW,332,16.0,30.0,90,-99.99,,,-99.99,,2013-02-02 05:52:00,
2013-02-01 23:02:00,15.0,13.0,-100.00,NNW,331,13.0,24.0,90,-99.99,,,-99.99,,2013-02-02 06:02:00,
2013-02-01 23:12:00,15.0,13.0,-100.00,NNW,331,13.0,24.0,90,-99.99,,,-99.99,,2013-02-02 06:12:00,
2013-02-01 23:21:00,15.0,13.0,-100.00,NW,325,12.0,28.0,90,-99.99,,,-99.99,,2013-02-02 06:21:00,
2013-02-01 23:31:00,15.0,13.0,-100.00,NW,323,7.0,20.0,90,-99.99,,,-99.99,,2013-02-02 06:31:00,
2013-02-01 23:41:00,15.0,13.0,-100.00,NW,323,7.0,20.0,90,-99.99,,,-99.99,,2013-02-02 06:41:00,
2013-02-01 23:52:00,15.0,13.0,-100.00,NNW,329,10.0,23.0,90,-99.99,,,-99.99,,2013-02-02 06:52:00,